Total_Precipitation_Accumulation
1.11 1.17 1.15 1.21 1.17 1.27 1.50 1.72 1.70 1.75 1.79 1.66 1.43 1.31 1.30 1.24 1.12 1.25 1.27 1.47 1.36 1.30 1.59 1.65 1.47 1.31 1.20 1.03 0.86 0.73 0.65 0.64 0.58 0.45 0.38 0.42 0.51 0.58 0.53 0.45 0.40 0.38 0.33
1.48 1.41 1.26 1.31 1.28 1.37 1.47 1.66 1.76 2.02 1.96 1.89 1.49 1.35 1.39 1.44 1.37 1.47 1.50 1.69 1.55 1.35 1.45 1.50 1.49 1.42 1.31 1.19 1.02 0.86 0.71 0.65 0.59 0.43 0.36 0.35 0.42 0.53 0.53 0.52 0.47 0.43 0.37
1.71 1.66 1.47 1.38 1.45 1.53 1.60 1.65 1.75 2.00 1.93 1.81 1.52 1.44 1.43 1.34 1.19 1.23 1.34 1.46 1.41 1.30 1.31 1.35 1.40 1.37 1.33 1.33 1.25 1.13 0.91 0.71 0.59 0.46 0.38 0.30 0.28 0.34 0.37 0.41 0.45 0.46 0.40
1.77 1.74 1.53 1.39 1.61 1.63 1.66 1.76 1.82 1.93 1.99 2.00 1.73 1.51 1.43 1.32 1.13 1.14 1.15 1.17 1.20 0.99 1.11 1.28 1.37 1.36 1.47 1.53 1.57 1.55 1.26 0.92 0.67 0.53 0.43 0.33 0.27 0.27 0.24 0.25 0.32 0.33 0.29
1.69 1.73 1.47 1.36 1.62 1.76 1.74 1.64 1.84 2.04 2.01 2.03 1.78 1.54 1.33 1.16 0.99 0.97 1.01 0.94 0.94 0.91 0.92 0.99 1.09 1.16 1.46 1.76 1.85 1.84 1.67 1.27 0.89 0.69 0.60 0.50 0.41 0.36 0.27 0.22 0.23 0.22 0.20
1.51 1.71 1.44 1.44 1.68 1.73 1.69 1.78 1.91 2.08 1.96 2.01 1.84 1.39 1.14 0.89 0.85 0.76 0.69 0.71 0.65 0.60 0.63 0.81 1.06 0.99 1.25 1.49 1.62 1.74 1.84 1.67 1.26 0.93 0.80 0.72 0.63 0.51 0.37 0.28 0.24 0.23 0.19
1.55 1.82 1.59 1.60 1.66 1.58 1.58 1.78 1.91 1.84 1.71 2.13 2.06 1.35 0.86 0.69 0.60 0.45 0.47 0.47 0.42 0.44 0.56 0.78 0.96 1.02 0.99 1.05 1.17 1.29 1.56 1.73 1.60 1.26 1.05 0.93 0.85 0.64 0.45 0.37 0.30 0.25 0.20
1.54 1.65 1.67 1.60 1.61 1.58 1.44 1.53 1.78 1.66 1.38 1.84 2.00 1.77 1.14 0.71 0.50 0.35 0.36 0.36 0.39 0.51 0.57 0.61 0.80 0.98 0.98 1.06 1.03 0.93 1.16 1.51 1.70 1.62 1.37 1.11 0.88 0.67 0.53 0.46 0.36 0.30 0.24
1.57 1.66 1.57 1.43 1.40 1.42 1.29 1.30 1.50 1.57 1.36 1.43 1.79 2.04 1.54 0.92 0.67 0.45 0.46 0.49 0.60 0.71 0.70 0.74 0.82 0.92 0.99 1.13 1.21 1.21 1.01 1.12 1.51 1.92 1.83 1.41 0.96 0.67 0.56 0.54 0.52 0.41 0.34
1.72 1.63 1.47 1.31 1.16 1.14 1.10 1.07 1.24 1.36 1.37 1.17 1.32 1.46 1.41 1.31 1.17 0.75 0.55 0.59 0.74 0.81 0.83 0.87 0.88 0.94 1.02 1.20 1.33 1.36 1.08 0.93 1.08 1.65 1.94 1.79 1.36 0.91 0.69 0.71 0.92 0.83 0.55
1.68 1.52 1.40 1.28 1.17 1.08 1.01 0.99 1.04 1.08 1.12 1.04 1.09 1.16 1.23 1.24 1.18 1.07 0.79 0.77 0.78 0.65 0.66 0.72 0.85 1.08 1.16 1.26 1.44 1.41 1.32 1.25 1.18 1.23 1.38 1.50 1.49 1.22 0.97 0.98 1.33 1.50 1.23
1.25 1.20 1.12 1.03 0.99 0.98 0.99 0.97 0.95 0.96 0.98 1.00 1.01 1.04 1.15 1.23 1.27 1.28 1.10 0.96 0.87 0.73 0.70 0.72 0.79 0.95 1.05 1.11 1.18 1.28 1.28 1.24 1.13 1.08 1.08 1.10 1.16 1.22 1.24 1.36 1.67 1.95 2.03
0.71 0.68 0.70 0.72 0.74 0.75 0.75 0.78 0.77 0.78 0.87 0.94 0.97 1.03 1.13 1.22 1.30 1.34 1.25 1.05 0.95 0.85 0.90 0.86 0.79 0.88 0.91 1.06 1.13 1.05 0.92 0.91 0.80 0.76 0.81 0.87 0.98 1.07 1.10 1.18 1.44 1.76 2.02
0.50 0.49 0.52 0.55 0.57 0.60 0.62 0.65 0.66 0.66 0.68 0.74 0.78 0.95 1.07 1.08 1.18 1.28 1.28 1.24 1.15 1.09 1.16 1.09 0.94 0.90 0.93 1.02 1.01 0.91 0.84 0.72 0.58 0.50 0.49 0.52 0.59 0.74 0.87 0.99 1.14 1.27 1.44
0.44 0.45 0.49 0.54 0.57 0.61 0.62 0.61 0.62 0.63 0.72 0.77 0.79 0.89 0.99 1.03 1.10 1.18 1.28 1.33 1.37 1.33 1.30 1.24 1.04 0.98 0.94 0.92 0.97 0.89 0.93 0.74 0.49 0.40 0.38 0.39 0.39 0.42 0.51 0.67 0.82 0.95 1.16
0.43 0.47 0.49 0.55 0.59 0.59 0.57 0.56 0.56 0.59 0.69 0.79 0.88 0.99 1.03 1.03 1.05 1.14 1.27 1.44 1.53 1.51 1.37 1.14 1.03 1.07 1.09 0.99 0.93 0.80 0.75 0.72 0.53 0.41 0.37 0.37 0.36 0.37 0.41 0.54 0.67 0.78 0.92
0.42 0.45 0.49 0.52 0.53 0.54 0.55 0.58 0.58 0.63 0.70 0.75 0.79 0.91 0.99 1.02 1.06 1.11 1.20 1.29 1.44 1.56 1.43 1.22 1.16 1.22 1.28 1.25 1.08 0.90 0.75 0.68 0.58 0.46 0.37 0.35 0.34 0.38 0.44 0.50 0.60 0.69 0.75
0.49 0.50 0.53 0.54 0.52 0.55 0.63 0.70 0.69 0.74 0.79 0.80 0.81 0.84 0.83 0.88 0.99 1.01 1.07 1.12 1.23 1.42 1.38 1.29 1.33 1.36 1.39 1.33 1.24 1.06 0.87 0.76 0.71 0.54 0.41 0.35 0.34 0.35 0.37 0.38 0.45 0.59 0.69
0.54 0.55 0.61 0.68 0.71 0.71 0.71 0.76 0.82 0.84 0.78 0.73 0.73 0.73 0.71 0.73 0.78 0.86 0.96 0.95 0.97 1.10 1.24 1.32 1.43 1.50 1.57 1.46 1.28 1.14 1.02 0.92 0.74 0.63 0.52 0.42 0.37 0.35 0.35 0.34 0.37 0.46 0.58
0.45 0.50 0.59 0.69 0.78 0.83 0.86 0.82 0.78 0.76 0.71 0.67 0.62 0.59 0.61 0.64 0.66 0.70 0.80 0.85 0.87 0.96 1.10 1.20 1.38 1.58 1.60 1.64 1.52 1.30 1.20 1.14 0.90 0.66 0.61 0.54 0.47 0.41 0.37 0.33 0.32 0.37 0.47
0.41 0.52 0.63 0.71 0.84 0.90 0.85 0.82 0.75 0.71 0.70 0.63 0.56 0.52 0.50 0.49 0.51 0.57 0.60 0.66 0.74 0.84 0.89 0.98 1.14 1.39 1.53 1.62 1.58 1.40 1.26 1.27 1.15 0.86 0.71 0.65 0.61 0.53 0.47 0.41 0.33 0.31 0.37
0.37 0.45 0.52 0.58 0.62 0.58 0.58 0.55 0.52 0.51 0.53 0.51 0.48 0.48 0.44 0.39 0.42 0.43 0.41 0.46 0.54 0.60 0.71 0.85 0.93 1.13 1.33 1.42 1.53 1.62 1.50 1.34 1.29 1.15 1.03 0.96 0.84 0.77 0.62 0.47 0.39 0.31 0.30
0.33 0.38 0.40 0.44 0.46 0.46 0.36 0.31 0.30 0.32 0.37 0.40 0.42 0.44 0.35 0.30 0.37 0.40 0.37 0.32 0.35 0.38 0.46 0.64 0.77 0.88 1.10 1.29 1.45 1.63 1.62 1.55 1.47 1.41 1.31 1.29 1.10 0.93 0.78 0.65 0.55 0.41 0.33
0.37 0.39 0.38 0.39 0.44 0.41 0.31 0.24 0.21 0.21 0.27 0.31 0.36 0.42 0.42 0.38 0.38 0.40 0.40 0.35 0.31 0.31 0.33 0.39 0.50 0.67 0.92 1.28 1.46 1.53 1.66 1.70 1.69 1.64 1.54 1.52 1.39 1.19 1.04 0.90 0.79 0.58 0.45
0.44 0.43 0.41 0.41 0.45 0.46 0.36 0.23 0.20 0.23 0.30 0.32 0.35 0.39 0.44 0.43 0.41 0.32 0.35 0.36 0.36 0.35 0.31 0.34 0.41 0.53 0.71 0.98 1.36 1.49 1.53 1.47 1.45 1.31 1.16 1.18 1.25 1.26 1.24 1.14 0.99 0.84 0.67
0.54 0.50 0.46 0.50 0.54 0.59 0.52 0.30 0.24 0.28 0.35 0.41 0.50 0.50 0.44 0.40 0.37 0.31 0.34 0.40 0.37 0.35 0.36 0.37 0.38 0.41 0.47 0.64 0.93 1.17 1.21 1.16 1.07 1.09 0.90 0.80 0.85 0.91 1.04 1.03 0.93 0.86 0.79